Location: Newark
(7.0858°N, 171.3717°E)
Time: 13:34:55
(UTC+00:00)

Vanguard 1 Rocket - Pass Details

Date: 02 December 2020
Orbit: 655 x 4222 km, 34.3° (Epoch: 23 January)

Event Time Altitude Azimuth Distance (km) Brightness Sun altitude
Rises 10:19:35 0° 235° (SW) 6,073 12.1 -56.5°
Reaches altitude 10° 10:22:50 10° 235° (SW) 5,429 11.7 -57.2°
Enters shadow 10:36:07 64° 243° (WSW) 3,840 10.3 -60.0°
